Regional Weather Roundup
Issued by NWS Newport/Morehead, NC

Current Version | Previous Version | Text Only | Print | Product List | Glossary On
Versions: 1 2 3 4 5 6 7 8 9 10 11 12 13 14 15 16 17 18 19 20 21 22 23 24 25 26 27 28 29 30 31 32 33 34 35 36 37 38 39 40 41 42 43 44 45 46 47 48 49 50
000 ASUS42 KMHX 010825 RWRMHX WEATHER ROUNDUP FOR EASTERN NORTH CAROLINA NATIONAL WEATHER SERVICE NEWPORT/MOREHEAD CITY NC 400 AM EDT SAT OCT 01 2016 NOTE: "FAIR" INDICATES FEW OR NO CLOUDS BELOW 12,000 FEET WITH NO SIGNIFICANT WEATHER AND/OR OBSTRUCTIONS TO VISIBILITY NCZ015>017-031-032-045>047-102-103-010900- NORTH COAST CITY SKY/WX TMP DP RH WIND PRES REMARKS EDENTON CLOUDY 76 76 100 SE5 30.03F ELIZABETH CITY CLOUDY 75 73 93 S5 30.03F KITTY HAWK CLOUDY 77 76 99 S3 30.03F MANTEO CLOUDY 77 75 92 S10 30.04F $$ NCZ045>047-081-094-103-104-010900- CENTRAL COAST CITY SKY/WX TMP DP RH WIND PRES REMARKS FRISCO CLOUDY 79 74 84 S13 30.04F $$ NCZ095-097-098-100-101-010900- SOUTHERN COAST CITY SKY/WX TMP DP RH WIND PRES REMARKS BEAUFORT CLOUDY 75 72 90 S9 30.04S CEDAR ISLAND NOT AVBL JACKSONVILLE CLOUDY 74 71 91 SE12 30.02R THUNDER PINEY ISLAND LGT RAIN N/A N/A N/A S8 30.02 WILMINGTON CLEAR 72 70 93 CALM 30.02R $$ NCZ011>013-027>030-043-044-078>080-089-090>093-098-010900- COASTAL PLAIN CITY SKY/WX TMP DP RH WIND PRES REMARKS AHOSKIE CLOUDY 70 70 99 CALM 30.03S CLINTON FOG 67 67 100 CALM 30.03S VSB 1/4 ELIZABETHTOWN FOG 65 65 100 CALM 30.03R VSB 3/4 GOLDSBORO FOG 70 70 100 CALM 30.00S VSB 1/4 GREENVILLE CLOUDY 73 73 100 CALM 30.03F FOG HAVELOCK CLOUDY 73 71 93 CALM 30.04F KENANSVILLE FOG 66 66 100 CALM 30.02F VSB 1/2 KINSTON FOG 72 71 98 CALM 30.02S VSB 1/2 NEW BERN LGT RAIN 73 70 90 S6 30.04S RICHLANDS FOG 70 70 100 CALM 30.02S VSB 1/2 ROCKY MOUNT CLOUDY 71 71 100 S3 30.02F FOG WASHINGTON CLOUDY 74 73 96 SE5 30.02S WHITEVILLE NOT AVBL $$ AMZ130-135-150-152-154-156-158-170-250-252-270-ANZ085-086-088-633-658-670-010900- MARINE OBSERVATIONS STATION/POSITION TIME TEMP WIND PRES WAVE SWELL AIR SEA DIR/SP/G HT/PER HT/PER (UTC) (F) (DEG/KT/KT) (MB) (FT/S) (FT/S) CHESAPEAKE LIGHT NOT AVBL 64 E VA BEACH 0750 75 75 100/ 4/ 6 1017.8 7/10 7/10 DUCK 0800 78 76 170/ 10/ 13 1016.7 2 E DUCK 0741 76 N/A 5/ 9 2/11 OREGON INLET 0800 78 79 170/ 11/ 14 1017.1 13E OREGON INLT 0800 76 N/A 5/11 5/11 HATTERAS CG 0800 78 79 180/ 10/ 14 1016.7 DIAMOND BUOY 0750 81 83 180/ 19/ 23 1016.8 7/11 5/11 CAPE LOOKOUT 0800 77 170/ 8/ 9 1016.4 BEAUFORT LAB 0800 76 76 160/ 10/ 12 1016.3 30 SE NEW RVR IN 0808 79 82 170/ 17/ 21 1016.5 30 SE NEW RVR IN 0755 82 N/A 5/ 6 2/11 27 SE WRIGHTSVLE 0808 77 81 160/ 12/ 17 1017.3 5 SE WRIGHTSVLE 0708 80 80 210/ 4/ 8 1017.5 225 S CAPE HAT 0750 82 83 150/ 14/ 16 1017.4 6/10 5/10 41 SE CHARLESTON 0750 80 82 340/ 8/ 10 1015.1 2/10 2/10 $$

USA.gov is the U.S. government's official web portal to all federal, state and local government web resources and services.